Regional Weather Roundup
Issued by NWS

Home | Current Version | Previous Version | Graphics & Text | Print | Product List | Glossary On
Versions: 1 2 3 4 5 6 7 8 9 10 11 12 13 14 15 16 17 18 19 20 21 22 23 24 25 26 27 28 29 30 31 32 33 34 35 36 37 38 39 40 41 42 43 44 45 46 47 48 49 50
158
ASUS45 KSLC 301010
RWRUT

UTAH REGIONAL WEATHER ROUNDUP
NATIONAL WEATHER SERVICE SALT LAKE CITY UT
400 AM MDT MON MAY 30 2016

UTZ001>011-023>025-301100-

NORTHERN UTAH

CITY           SKY/WX    TMP DP  RH WIND       PRES   REMARKS
BRIGHAM CITY     N/A     57  49  74 NW3       30.09R
HILL AFB       CLOUDY    56  45  68 S13       30.10S
LOGAN          MOCLDY    49  47  93 N5        30.08R
OGDEN          CLOUDY    58  46  64 S10       30.09R
PROVO AIRPORT  CLOUDY    59  43  55 NW21G30   30.12S
SALT LAKE CITY CLOUDY    59  48  67 SE14G26   30.10F
VERNAL         CLOUDY    48  39  71 CALM      30.09S
WENDOVER       CLEAR     55  45  67 W6        30.07F
HEBER CITY     CLOUDY    50  43  76 CALM      30.18R
WEST JORDAN    CLOUDY    55  48  76 SE12      30.13F

$$

UTZ012>022-026-027-301100-

SOUTHERN/CENTRAL UTAH

CITY           SKY/WX    TMP DP  RH WIND       PRES   REMARKS
BLANDING       CLEAR     51  27  38 CALM      30.14R
BRYCE CANYON   PTCLDY    37  29  72 W6        30.20S WCI  32
CEDAR CITY     PTCLDY    44  33  65 CALM      30.09R
DELTA          CLOUDY    55  43  62 NE10      30.10S
HANKSVILLE     PTCLDY    50  30  46 N5        30.04S
MILFORD        CLEAR     46  34  62 N8        30.09R
MOAB/CYNLANDS  PTCLDY    55  33  43 W6        29.99F
PRICE          PTCLDY    52  30  43 N7        30.10R
ST GEORGE      CLOUDY    68  28  22 SE7       29.96R

$$

REGIONAL REPORTS     COLORADO/ARIZONA

CITY           SKY/WX    TMP DP  RH WIND       PRES   REMARKS
CRAIG, CO      CLOUDY    37  34  89 CALM      30.13S
GRAND JUNCTION CLEAR     52  37  56 SE3       30.04S
RIFLE          CLOUDY    43  35  73 S5        30.11R
MONTROSE       CLOUDY    46  31  55 E6        30.12R
CORTEZ         CLOUDY    40  28  62 NE7       30.10R
PAGE, AZ       PTCLDY    67  30  25 CALM      29.99R
GRAND CANYON   CLEAR     33  15  47 E3        30.17S
KINGMAN        CLEAR     59  22  24 CALM      29.97F
FLAGSTAFF      CLEAR     42  16  34 NW5       30.17S

$$

REGIONAL REPORTS    NEVADA/IDAHO/WYOMING

CITY           SKY/WX    TMP DP  RH WIND       PRES   REMARKS
LAS VEGAS, NV  PTCLDY    75  20  12 S6        29.85F
ELY            CLEAR     41  35  79 S5        30.16R
ELKO           CLEAR     48  42  80 S6        30.11R
POCATELLO, ID  MOCLDY    48  42  80 N6        30.06R
BURLEY         MOCLDY    54  45  71 SW9       30.04R
EVANSTON, WY   CLOUDY    43  38  82 S8        30.20F
ROCK SPRINGS   CLOUDY    44  37  76 SW14      30.17S
KEMMERER         N/A     43  37  81 NW5       30.18S

$$




USA.gov is the U.S. government's official web portal to all federal, state and local government web resources and services.